CW0570 Weather Reports


Display with metric or nautical units.
time (UTC)temp
F
wind
direction
speed
MPH
gust
MPH
rain 1hr
in
rain 24hr
in
rain mn
in
humidity
%
barometer
mb
20260904193103 62 9 0.0 2.0 0.00 0.12 0.00 87 1016.2
20260904191558 61 9 0.0 2.0 0.00 0.12 0.00 87 1016.2
20260904190053 61 9 0.0 2.0 0.00 0.12 0.00 82 1016.2
20260904184555 60 12 0.0 2.0 0.00 0.13 0.00 83 1016.3
20260904183047 59 20 0.0 4.0 0.00 0.13 0.00 86 1016.3
20260904181544 58 26 0.0 4.0 0.00 0.13 0.00 90 1016.4
20260904180043 57 349 0.0 3.0 0.00 0.13 0.00 90 1016.4
20260904174544 56 322 0.0 3.0 0.00 0.13 0.00 92 1016.4
20260904173039 55 329 0.0 2.0 0.00 0.13 0.00 95 1016.3
20260904171534 53 252 0.0 2.0 0.00 0.13 0.00 95 1016.3
20260904170027 52 252 0.0 2.0 0.00 0.13 0.00 96 1016.2
20260904164526 52 251 0.0 1.0 0.00 0.15 0.00 96 1016.0
20260904163030 51 251 0.0 2.0 0.00 0.15 0.00 97 1016.1
20260904161526 51 251 0.0 0.0 0.00 0.15 0.00 97 1016.1
20260904160021 50 252 0.0 2.0 0.00 0.15 0.00 98 1016.0
20260904154521 50 251 0.0 2.0 0.00 0.16 0.00 98 1016.0
20260904153021 49 251 0.0 2.0 0.00 0.16 0.00 98 1015.9
20260904151516 49 251 0.0 0.0 0.00 0.16 0.00 98 1015.8
20260904150026 49 251 0.0 2.0 0.00 0.16 0.00 98 1015.8
20260904144511 48 251 0.0 2.0 0.00 0.23 0.00 98 1015.7
20260904143013 48 251 0.0 0.0 0.00 0.23 0.00 98 1015.5
20260904141510 48 251 0.0 0.0 0.00 0.23 0.00 98 1015.4
20260904140008 47 251 0.0 0.0 0.00 0.23 0.00 98 1015.3
20260904134518 47 251 0.0 0.0 0.00 0.23 0.00 98 1015.1
20260904133006 47 251 0.0 0.0 0.00 0.23 0.00 97 1015.1
20260904131505 47 251 0.0 0.0 0.00 0.23 0.00 97 1015.0
20260904130003 48 251 0.0 2.0 0.00 0.23 0.00 98 1014.9
20260904124502 48 251 0.0 2.0 0.00 0.24 0.00 97 1014.8
20260904123100 48 251 0.0 2.0 0.00 0.24 0.00 98 1015.0
20260904121559 48 251 0.0 2.0 0.00 0.24 0.00 98 1015.0
20260904120106 48 251 0.0 1.0 0.00 0.24 0.00 98 1015.1
20260904114557 48 251 0.0 0.0 0.00 0.24 0.00 98 1015.0
20260904113058 48 251 0.0 0.0 0.00 0.24 0.00 98 1015.1
20260904111554 49 251 0.0 1.0 0.00 0.24 0.00 98 1015.0
20260904110024 49 251 0.0 0.0 0.00 0.24 0.00 98 1014.9
20260904104552 49 251 0.0 0.0 0.00 0.24 0.00 98 1014.7
20260904103051 49 251 0.0 0.0 0.00 0.24 0.00 98 1014.6
20260904101551 49 251 0.0 0.0 0.00 0.24 0.00 97 1014.4
20260904100051 49 251 0.0 0.0 0.00 0.24 0.00 97 1014.4
20260904094551 49 251 0.0 0.0 0.00 0.24 0.00 97 1014.5
20260904093047 49 251 0.0 0.0 0.00 0.24 0.00 97 1014.7
20260904091545 49 251 0.0 0.0 0.00 0.24 0.00 97 1014.6
20260904090044 49 251 0.0 2.0 0.00 0.24 0.00 97 1014.8
20260904084542 49 141 0.0 0.0 0.00 0.24 0.00 97 1014.8
20260904083046 50 141 0.0 2.0 0.00 0.24 0.00 97 1014.9
20260904081538 50 252 0.0 0.0 0.00 0.24 0.00 97 1014.8
20260904080037 50 252 0.0 0.0 0.00 0.24 0.00 97 1014.7
20260904074535 51 252 0.0 0.0 0.00 0.24 0.00 97 1014.7
20260904073035 51 252 0.0 0.0 0.00 0.24 0.00 97 1014.7
20260904071533 51 252 0.0 0.0 0.00 0.24 0.00 97 1014.7
20260904070030 52 252 0.0 0.0 0.00 0.24 0.00 97 1014.6
20260904064529 52 252 0.0 0.0 0.00 0.25 0.24 97 1014.5
20260904063034 52 252 0.0 0.0 0.00 0.25 0.24 97 1014.5
20260904061526 53 252 0.0 0.0 0.00 0.25 0.24 96 1014.3
20260904060025 53 252 0.0 2.0 0.00 0.25 0.24 96 1014.3
20260904054523 54 290 0.0 0.0 0.00 0.25 0.24 97 1014.3
20260904053021 54 329 0.0 0.0 0.00 0.25 0.24 97 1014.2
20260904051520 54 329 0.0 0.0 0.00 0.25 0.24 97 1014.3
20260904050019 55 329 0.0 2.0 0.00 0.25 0.24 97 1014.3
20260904044521 55 328 0.0 2.0 0.00 0.26 0.24 97 1014.4
20260904043016 55 333 0.0 2.0 0.00 0.26 0.24 97 1014.3
20260904041515 56 333 0.0 0.0 0.00 0.26 0.24 97 1014.2
20260904040015 56 333 0.0 0.0 0.00 0.26 0.24 97 1014.0
20260904034515 56 333 0.0 0.0 0.00 0.28 0.24 97 1013.9
20260904033013 57 333 0.0 0.0 0.00 0.28 0.24 97 1013.7
20260904031512 57 333 0.0 0.0 0.00 0.28 0.24 96 1013.6
20260904030011 57 333 0.0 0.0 0.00 0.28 0.24 96 1013.6
20260904024514 58 333 0.0 0.0 0.00 0.33 0.24 96 1013.6
20260904023011 58 333 0.0 0.0 0.00 0.33 0.24 96 1013.5
20260904021511 58 333 0.0 0.0 0.00 0.33 0.24 96 1013.5
20260904020008 58 333 0.0 0.0 0.00 0.33 0.24 96 1013.6
20260904014508 59 333 0.0 0.0 0.00 0.42 0.24 96 1013.7
20260904013008 59 333 0.0 0.0 0.00 0.42 0.24 96 1013.7
20260904011511 59 333 0.0 0.0 0.00 0.42 0.24 96 1013.8
20260904010009 59 333 0.0 0.0 0.00 0.42 0.24 96 1013.8
20260904004506 59 333 0.0 0.0 0.01 0.51 0.24 96 1013.9
20260904003006 59 333 0.0 3.0 0.07 0.51 0.24 96 1013.9
20260904001506 58 329 1.0 2.0 0.07 0.51 0.24 96 1013.9
20260904000004 57 129 0.0 1.0 0.07 0.51 0.24 96 1014.0
20260903234504 57 130 0.0 2.0 0.06 0.55 0.23 96 1014.1
20260903233003 58 129 0.0 3.0 0.00 0.49 0.17 96 1014.2
20260903231509 58 132 0.0 3.0 0.00 0.49 0.17 95 1014.0
20260903230003 59 113 0.0 2.0 0.00 0.49 0.17 96 1013.9
20260903224508 59 119 0.0 2.0 0.04 0.51 0.17 95 1013.9
20260903223004 59 119 1.0 3.0 0.04 0.51 0.17 97 1014.1
20260903221503 59 121 0.0 2.0 0.05 0.51 0.17 97 1014.1
20260903220100 59 121 0.0 2.0 0.05 0.51 0.17 96 1014.3
20260903214612 59 114 0.0 2.0 0.01 0.49 0.13 95 1014.3
20260903213107 60 128 0.0 3.0 0.01 0.49 0.13 93 1014.3
20260903211603 61 15 0.0 3.0 0.00 0.48 0.12 96 1014.0
20260903210125 61 138 0.0 2.0 0.00 0.48 0.12 96 1014.0
20260903204601 61 138 0.0 2.0 0.00 0.49 0.12 96 1013.7
20260903203110 61 265 0.0 2.0 0.00 0.49 0.12 96 1013.6
20260903201553 61 265 0.0 2.0 0.00 0.49 0.12 96 1013.7
20260903200055 60 265 0.0 2.0 0.00 0.49 0.12 96 1013.8
20260903194551 60 265 0.0 2.0 0.00 0.52 0.12 96 1014.1